Torna al catalogo

TITAN 3C TRANSTAGE R/B

LostMEO
NORAD 2660·ROCKET BODY·🇺🇸 United States

Lanciato Jan 18, 1967 da Cape Canaveral Space Force Station

Loading…

Prossimi Passaggi (prossime 24 ore)

TLE

ObsoletoSource: Space-Track

Epoca: Jul 19, 1995, 00:00 UTC

1  2660U 67003J   95200.00000000 -.00000144 +00000-0 +10000-3 0  9990
2  2660 011.3730 343.9923 0029345 194.5544 187.0632 01.08288989033702

Traccia TITAN 3C TRANSTAGE R/B in tempo reale con AllMySat

Download on the App Store